Time,TemperatureF,DewpointF,PressureIn,WindDirection,WindDirectionDegrees,WindSpeedMPH,WindSpeedGustMPH,Humidity,HourlyPrecipIn,Conditions,Clouds,dailyrainin,SoftwareType,DateUTC
2013-09-05 00:14:00,60.0,58.0,30.13,NNW,348,0.0,0.0,93,0.00,,,0.00,weatherlink.com 1.10,2013-09-05 05:14:00,
2013-09-05 00:29:00,60.1,58.0,30.13,NNW,348,0.0,0.0,94,0.00,,,0.00,weatherlink.com 1.10,2013-09-05 05:29:00,
2013-09-05 00:44:00,60.0,58.0,30.13,NNW,348,0.0,0.0,94,0.00,,,0.00,weatherlink.com 1.10,2013-09-05 05:44:00,
2013-09-05 00:59:00,59.7,58.0,30.13,NNW,348,0.0,0.0,93,0.00,,,0.00,weatherlink.com 1.10,2013-09-05 05:59:00,
2013-09-05 01:14:00,59.4,58.0,30.13,NNW,348,0.0,0.0,94,0.00,,,0.00,weatherlink.com 1.10,2013-09-05 06:14:00,
2013-09-05 01:29:00,59.0,57.0,30.13,NNW,348,0.0,0.0,94,0.00,,,0.00,weatherlink.com 1.10,2013-09-05 06:29:00,
2013-09-05 01:44:00,59.1,57.0,30.13,NNW,348,0.0,0.0,94,0.00,,,0.00,weatherlink.com 1.10,2013-09-05 06:44:00,
2013-09-05 01:59:00,58.7,57.0,30.13,NNW,348,0.0,0.0,94,0.00,,,0.00,weatherlink.com 1.10,2013-09-05 06:59:00,
2013-09-05 02:14:00,58.3,57.0,30.14,NNW,348,0.0,0.0,95,0.00,,,0.00,weatherlink.com 1.10,2013-09-05 07:14:00,
2013-09-05 02:44:00,57.8,56.0,30.14,NNW,348,0.0,0.0,95,0.00,,,0.00,weatherlink.com 1.10,2013-09-05 07:44:00,
2013-09-05 02:59:00,57.5,56.0,30.14,NNW,348,0.0,0.0,95,0.00,,,0.00,weatherlink.com 1.10,2013-09-05 07:59:00,
2013-09-05 03:14:00,57.8,56.0,30.13,NNW,348,0.0,0.0,95,0.00,,,0.00,weatherlink.com 1.10,2013-09-05 08:14:00,
2013-09-05 03:29:00,57.5,56.0,30.13,NNW,348,0.0,0.0,95,0.00,,,0.00,weatherlink.com 1.10,2013-09-05 08:29:00,
2013-09-05 03:44:00,57.7,56.0,30.13,NNW,348,0.0,0.0,95,0.00,,,0.00,weatherlink.com 1.10,2013-09-05 08:44:00,
2013-09-05 04:00:00,56.8,55.0,30.13,NNW,348,0.0,0.0,95,0.00,,,0.00,weatherlink.com 1.10,2013-09-05 09:00:00,
2013-09-05 04:15:00,56.4,55.0,30.13,NNW,348,0.0,0.0,95,0.00,,,0.00,weatherlink.com 1.10,2013-09-05 09:15:00,
2013-09-05 04:30:00,56.2,55.0,30.13,NNW,348,0.0,0.0,95,0.00,,,0.00,weatherlink.com 1.10,2013-09-05 09:30:00,
2013-09-05 04:45:00,56.4,55.0,30.14,NNW,348,0.0,0.0,95,0.00,,,0.00,weatherlink.com 1.10,2013-09-05 09:45:00,
2013-09-05 05:00:00,56.3,55.0,30.14,NNW,348,0.0,0.0,95,0.00,,,0.00,weatherlink.com 1.10,2013-09-05 10:00:00,
2013-09-05 05:15:00,56.1,55.0,30.15,NNW,348,0.0,0.0,95,0.00,,,0.00,weatherlink.com 1.10,2013-09-05 10:15:00,
2013-09-05 05:30:00,56.0,55.0,30.15,NNW,348,0.0,0.0,95,0.00,,,0.00,weatherlink.com 1.10,2013-09-05 10:30:00,
2013-09-05 05:45:00,56.0,55.0,30.15,NNW,348,0.0,0.0,96,0.00,,,0.00,weatherlink.com 1.10,2013-09-05 10:45:00,
2013-09-05 06:00:00,56.3,55.0,30.16,NNW,348,0.0,0.0,96,0.00,,,0.00,weatherlink.com 1.10,2013-09-05 11:00:00,
2013-09-05 06:15:00,56.1,55.0,30.16,NNW,348,0.0,0.0,95,0.00,,,0.00,weatherlink.com 1.10,2013-09-05 11:15:00,
2013-09-05 06:30:00,55.9,55.0,30.17,NNW,348,0.0,0.0,95,0.00,,,0.00,weatherlink.com 1.10,2013-09-05 11:30:00,
2013-09-05 06:45:00,55.8,54.0,30.17,NNW,348,0.0,0.0,95,0.00,,,0.00,weatherlink.com 1.10,2013-09-05 11:45:00,
2013-09-05 07:00:00,55.5,54.0,30.17,NNW,348,0.0,0.0,95,0.00,,,0.00,weatherlink.com 1.10,2013-09-05 12:00:00,
2013-09-05 07:15:00,55.3,54.0,30.17,NNW,348,0.0,0.0,96,0.00,,,0.00,weatherlink.com 1.10,2013-09-05 12:15:00,
2013-09-05 07:30:00,55.6,55.0,30.18,NNW,348,0.0,0.0,96,0.00,,,0.00,weatherlink.com 1.10,2013-09-05 12:30:00,
2013-09-05 07:45:00,56.9,56.0,30.18,NNW,348,0.0,0.0,96,0.00,,,0.00,weatherlink.com 1.10,2013-09-05 12:45:00,
2013-09-05 08:00:00,59.2,58.0,30.18,NNW,348,0.0,0.0,96,0.00,,,0.00,weatherlink.com 1.10,2013-09-05 13:00:00,
2013-09-05 08:15:00,60.9,60.0,30.18,NNW,348,0.0,0.0,96,0.00,,,0.00,weatherlink.com 1.10,2013-09-05 13:15:00,
2013-09-05 08:30:00,62.8,62.0,30.18,NNW,348,0.0,0.0,96,0.00,,,0.00,weatherlink.com 1.10,2013-09-05 13:30:00,
2013-09-05 08:45:00,64.8,64.0,30.18,NNW,348,0.0,2.0,96,0.00,,,0.00,weatherlink.com 1.10,2013-09-05 13:45:00,
2013-09-05 09:00:00,66.4,65.0,30.19,NW,323,0.0,1.0,96,0.00,,,0.00,weatherlink.com 1.10,2013-09-05 14:00:00,
2013-09-05 09:15:00,67.4,66.0,30.18,NW,323,0.0,0.0,96,0.00,,,0.00,weatherlink.com 1.10,2013-09-05 14:15:00,
2013-09-05 09:30:00,68.8,67.0,30.18,NW,323,0.0,2.0,94,0.00,,,0.00,weatherlink.com 1.10,2013-09-05 14:30:00,
2013-09-05 09:45:00,72.1,67.0,30.19,NW,323,0.0,1.0,85,0.00,,,0.00,weatherlink.com 1.10,2013-09-05 14:45:00,
2013-09-05 10:00:00,74.4,66.0,30.19,NW,323,0.0,2.0,76,0.00,,,0.00,weatherlink.com 1.10,2013-09-05 15:00:00,
2013-09-05 10:15:00,76.1,65.0,30.20,NW,323,2.0,2.0,68,0.00,,,0.00,weatherlink.com 1.10,2013-09-05 15:15:00,
2013-09-05 10:31:00,77.1,66.0,30.20,NW,323,1.0,3.0,68,0.00,,,0.00,weatherlink.com 1.10,2013-09-05 15:31:00,
2013-09-05 10:46:00,78.4,66.0,30.20,NW,323,1.0,3.0,65,0.00,,,0.00,weatherlink.com 1.10,2013-09-05 15:46:00,
2013-09-05 11:01:00,80.3,67.0,30.20,NW,323,1.0,3.0,64,0.00,,,0.00,weatherlink.com 1.10,2013-09-05 16:01:00,
2013-09-05 11:16:00,80.7,66.0,30.19,SW,234,2.0,4.0,62,0.00,,,0.00,weatherlink.com 1.10,2013-09-05 16:16:00,
2013-09-05 11:31:00,81.4,65.0,30.19,SSE,166,2.0,6.0,58,0.00,,,0.00,weatherlink.com 1.10,2013-09-05 16:31:00,
2013-09-05 11:46:00,81.5,65.0,30.19,SSE,158,0.0,5.0,58,0.00,,,0.00,weatherlink.com 1.10,2013-09-05 16:46:00,
2013-09-05 12:01:00,81.8,67.0,30.19,SSE,158,0.0,3.0,62,0.00,,,0.00,weatherlink.com 1.10,2013-09-05 17:01:00,
2013-09-05 12:16:00,83.0,66.0,30.19,SSE,158,0.0,4.0,57,0.00,,,0.00,weatherlink.com 1.10,2013-09-05 17:16:00,
2013-09-05 12:31:00,83.1,64.0,30.18,SSE,158,4.0,4.0,53,0.00,,,0.00,weatherlink.com 1.10,2013-09-05 17:31:00,
2013-09-05 12:46:00,83.8,66.0,30.18,SSE,158,1.0,3.0,56,0.00,,,0.00,weatherlink.com 1.10,2013-09-05 17:46:00,
2013-09-05 13:01:00,84.1,65.0,30.17,SSE,150,2.0,4.0,52,0.00,,,0.00,weatherlink.com 1.10,2013-09-05 18:01:00,
2013-09-05 13:16:00,84.4,67.0,30.17,South,182,2.0,7.0,57,0.00,,,0.00,weatherlink.com 1.10,2013-09-05 18:16:00,
2013-09-05 13:31:00,84.5,68.0,30.16,South,169,2.0,5.0,58,0.00,,,0.00,weatherlink.com 1.10,2013-09-05 18:31:00,
2013-09-05 13:46:00,85.1,66.0,30.16,East,94,1.0,3.0,53,0.00,,,0.00,weatherlink.com 1.10,2013-09-05 18:46:00,
2013-09-05 14:01:00,85.4,68.0,30.15,South,173,1.0,7.0,56,0.00,,,0.00,weatherlink.com 1.10,2013-09-05 19:01:00,
2013-09-05 14:16:00,85.2,66.0,30.15,SSE,160,5.0,6.0,53,0.00,,,0.00,weatherlink.com 1.10,2013-09-05 19:16:00,
2013-09-05 14:31:00,85.4,66.0,30.15,SSE,161,4.0,5.0,52,0.00,,,0.00,weatherlink.com 1.10,2013-09-05 19:31:00,
2013-09-05 14:46:00,84.6,66.0,30.15,SSE,165,5.0,6.0,53,0.00,,,0.00,weatherlink.com 1.10,2013-09-05 19:46:00,
2013-09-05 15:01:00,83.9,65.0,30.14,SSE,164,0.0,5.0,54,0.00,,,0.00,weatherlink.com 1.10,2013-09-05 20:01:00,
2013-09-05 15:16:00,83.9,65.0,30.14,SSE,163,2.0,5.0,53,0.00,,,0.00,weatherlink.com 1.10,2013-09-05 20:16:00,
2013-09-05 15:31:00,83.9,64.0,30.14,SSE,163,1.0,4.0,52,0.00,,,0.00,weatherlink.com 1.10,2013-09-05 20:31:00,
2013-09-05 15:46:00,83.8,66.0,30.14,SSE,163,3.0,5.0,56,0.00,,,0.00,weatherlink.com 1.10,2013-09-05 20:46:00,
2013-09-05 16:01:00,84.4,64.0,30.13,SSE,163,2.0,6.0,50,0.00,,,0.00,weatherlink.com 1.10,2013-09-05 21:01:00,
2013-09-05 16:16:00,84.3,66.0,30.13,SSE,164,2.0,5.0,54,0.00,,,0.00,weatherlink.com 1.10,2013-09-05 21:16:00,
2013-09-05 16:31:00,83.0,66.0,30.13,SSE,164,2.0,5.0,57,0.00,,,0.00,weatherlink.com 1.10,2013-09-05 21:31:00,
2013-09-05 16:46:00,83.3,67.0,30.13,SSE,164,2.0,4.0,58,0.00,,,0.00,weatherlink.com 1.10,2013-09-05 21:46:00,
2013-09-05 17:01:00,83.6,67.0,30.13,SSE,163,1.0,5.0,57,0.00,,,0.00,weatherlink.com 1.10,2013-09-05 22:01:00,
2013-09-05 17:16:00,83.5,67.0,30.12,SSE,163,0.0,5.0,57,0.00,,,0.00,weatherlink.com 1.10,2013-09-05 22:16:00,
2013-09-05 17:31:00,83.1,66.0,30.12,SSE,163,0.0,4.0,57,0.00,,,0.00,weatherlink.com 1.10,2013-09-05 22:31:00,
2013-09-05 17:46:00,83.2,68.0,30.12,SSE,163,0.0,2.0,61,0.00,,,0.00,weatherlink.com 1.10,2013-09-05 22:46:00,
2013-09-05 18:01:00,83.0,69.0,30.12,SSE,163,0.0,1.0,62,0.00,,,0.00,weatherlink.com 1.10,2013-09-05 23:01:00,
2013-09-05 18:16:00,82.3,69.0,30.12,SSE,163,0.0,1.0,65,0.00,,,0.00,weatherlink.com 1.10,2013-09-05 23:16:00,
2013-09-05 18:31:00,80.5,68.0,30.12,SSE,163,0.0,0.0,66,0.00,,,0.00,weatherlink.com 1.10,2013-09-05 23:31:00,
2013-09-05 18:46:00,79.3,67.0,30.12,SSE,163,0.0,0.0,66,0.00,,,0.00,weatherlink.com 1.10,2013-09-05 23:46:00,
2013-09-05 19:01:00,77.5,67.0,30.11,SSE,163,0.0,0.0,69,0.00,,,0.00,weatherlink.com 1.10,2013-09-06 00:01:00,
2013-09-05 19:16:00,75.9,67.0,30.11,SSE,163,0.0,0.0,73,0.00,,,0.00,weatherlink.com 1.10,2013-09-06 00:16:00,
2013-09-05 19:31:00,74.3,66.0,30.11,SSE,163,0.0,0.0,76,0.00,,,0.00,weatherlink.com 1.10,2013-09-06 00:31:00,
2013-09-05 19:46:00,72.7,66.0,30.11,SSE,163,0.0,0.0,80,0.00,,,0.00,weatherlink.com 1.10,2013-09-06 00:46:00,
2013-09-05 20:01:00,70.7,66.0,30.12,SSE,163,0.0,0.0,84,0.00,,,0.00,weatherlink.com 1.10,2013-09-06 01:01:00,
2013-09-05 20:16:00,69.3,65.0,30.13,SSE,163,0.0,1.0,87,0.00,,,0.00,weatherlink.com 1.10,2013-09-06 01:16:00,
2013-09-05 20:31:00,68.6,64.0,30.13,SSE,163,0.0,0.0,86,0.00,,,0.00,weatherlink.com 1.10,2013-09-06 01:31:00,
2013-09-05 20:46:00,68.1,65.0,30.13,SSE,163,0.0,0.0,88,0.00,,,0.00,weatherlink.com 1.10,2013-09-06 01:46:00,
2013-09-05 21:01:00,67.6,64.0,30.13,SSE,163,0.0,0.0,89,0.00,,,0.00,weatherlink.com 1.10,2013-09-06 02:01:00,
2013-09-05 21:16:00,66.9,64.0,30.14,SSE,163,0.0,0.0,89,0.00,,,0.00,weatherlink.com 1.10,2013-09-06 02:16:00,
2013-09-05 21:31:00,66.5,64.0,30.14,SSE,163,0.0,0.0,91,0.00,,,0.00,weatherlink.com 1.10,2013-09-06 02:31:00,
2013-09-05 21:46:00,66.2,64.0,30.15,SSE,163,0.0,0.0,91,0.00,,,0.00,weatherlink.com 1.10,2013-09-06 02:46:00,
2013-09-05 22:01:00,65.8,64.0,30.15,SSE,163,0.0,0.0,92,0.00,,,0.00,weatherlink.com 1.10,2013-09-06 03:01:00,
2013-09-05 22:16:00,65.4,63.0,30.15,SSE,163,0.0,0.0,92,0.00,,,0.00,weatherlink.com 1.10,2013-09-06 03:16:00,
2013-09-05 22:31:00,65.0,63.0,30.15,SSE,163,0.0,0.0,92,0.00,,,0.00,weatherlink.com 1.10,2013-09-06 03:31:00,
2013-09-05 22:46:00,64.9,63.0,30.15,SSE,163,0.0,0.0,93,0.00,,,0.00,weatherlink.com 1.10,2013-09-06 03:46:00,
2013-09-05 23:01:00,64.3,62.0,30.16,SSE,163,0.0,0.0,93,0.00,,,0.00,weatherlink.com 1.10,2013-09-06 04:01:00,
2013-09-05 23:16:00,64.0,62.0,30.15,SSE,163,0.0,0.0,94,0.00,,,0.00,weatherlink.com 1.10,2013-09-06 04:16:00,
2013-09-05 23:31:00,63.8,62.0,30.16,SSE,163,0.0,0.0,94,0.00,,,0.00,weatherlink.com 1.10,2013-09-06 04:31:00,
2013-09-05 23:46:00,63.6,62.0,30.16,SSE,163,0.0,0.0,94,0.00,,,0.00,weatherlink.com 1.10,2013-09-06 04:46:00,